Home   Weather   Eckernförde   Past weeks

Flag for Germany Past Weather in Eckernförde, Schleswig-Holstein, Germany — Yesterday and Last 2 Weeks

Now
70 °F

Scattered clouds.


Feels Like: 70 °F
Forecast: 55 / 74 °F
Wind: 12 mph from West

Location: Schleswig-Jagel

Current Time: Aug 16, 2017 at 5:31:38 pm

Latest Report: Aug 16, 2017 at 4:20 pm


Visibility: N/A

Pressure: 30.15 "Hg

Humidity: 50%

Dew Point: 50 °F

Location of EckernfördeLocation

Past Weather in Eckernförde — Graph

°F

Eckernförde Temperature Yesterday

Maximum temperature yesterday: 79 °F (at 2:20 pm)
Minimum temperature yesterday: 57 °F (at 2:20 am)
Average temperature yesterday: 69 °F

High & Low Weather Summary for the Past Weeks

 TemperatureHumidityPressure
High79 °F (Aug 15, 2:20 pm)100% (Aug 2, 1:20 am)30.24 "Hg (Aug 2, 1:20 am)
Low45 °F (Aug 14, 5:20 am)44% (Aug 7, 2:20 pm)29.62 "Hg (Aug 3, 2:14 pm)
Average62 °F78%29.96 "Hg
* Reported Aug 1 4:20 pm — Aug 16 4:20 pm, Eckernförde. Weather by CustomWeather, © 2017

Note: Actual official high and low records may vary slightly from our data, if they occured in-between our weather recording intervals... More about our weather records

Advertising

Eckernförde Weather History for the Previous 24 Hours

Scroll right to see more
 ConditionsComfort  
Time TempWeatherWind HumidityBarometerVisibility
4:20 pm
Wed, Aug 16
70 °FScattered clouds.12 mph50%30.15 "HgN/A
3:20 pm70 °FScattered clouds.9 mph50%30.15 "HgN/A
2:20 pm70 °FScattered clouds.12 mph53%30.15 "HgN/A
1:20 pm68 °FScattered clouds.10 mph56%30.15 "HgN/A
12:20 pm68 °FScattered clouds.6 mph64%30.12 "HgN/A
11:20 am66 °FScattered clouds.9 mph68%30.12 "HgN/A
10:20 am66 °FScattered clouds.12 mph68%30.12 "HgN/A
9:20 am64 °FScattered clouds.10 mph78%30.12 "HgN/A
8:20 am61 °FPassing clouds.6 mph94%30.09 "HgN/A
7:20 am59 °FFog.6 mph94%30.07 "Hg6 mi
6:20 am59 °FFog.7 mph94%30.04 "Hg5 mi
5:20 am59 °FFog.7 mph100%30.04 "Hg3 mi
4:20 am59 °FCool.7 mph100%30.01 "HgN/A
3:20 am61 °FCool.7 mph100%30.01 "HgN/A
2:20 am63 °FMild.7 mph94%30.01 "HgN/A
1:20 am63 °FMild.7 mph94%29.98 "HgN/A
12:20 am64 °FMild.7 mph94%29.98 "HgN/A
11:20 pm
Tue, Aug 15
66 °FMild.7 mph88%29.98 "HgN/A
10:20 pm68 °FMild.3 mph83%29.95 "HgN/A
9:20 pm68 °FMild.2 mph83%29.98 "HgN/A
8:20 pm72 °FMild.6 mph78%29.92 "HgN/A
7:45 pm73 °FBroken clouds.8 mph69%29.92 "HgN/A
7:20 pm73 °FBroken clouds.10 mph69%29.89 "HgN/A
6:20 pm77 °FSprinkles. Broken clouds.6 mph65%29.92 "HgN/A
5:20 pm79 °FBroken clouds.8 mph58%29.92 "HgN/A
Weather by CustomWeather, © 2017

See weather overviewHow to use our weather pages